Mount Vernon, IL

5:06 AM CDT on May 26, 2017 (GMT -0500)
Mount Vernon

Weather History for KMVN - February, 2014

Change the Weather History Date:

Friday, February 21, 2014

  Actual Average Record
Temperature  
Mean Temperature 42 °F -  
Max Temperature 51 °F 44 °F 66 °F (1997)
Min Temperature 33 °F 28 °F 17 °F (2008)
Degree Days  
Heating Degree Days 23    
Moisture  
Dew Point 24 °F    
Average Humidity 50    
Maximum Humidity 81    
Minimum Humidity 32    
Precipitation  
Precipitation 0.00 in - - ()
Sea Level Pressure  
Sea Level Pressure 29.90 in    
Wind  
Wind Speed 13 mph (SW)    
Max Wind Speed 21 mph    
Max Gust Speed 30 mph    
Visibility 10 miles    
Events      
Averages and records for this station are not official NWS values.
T = Trace of Precipitation, MM = Missing Value Source: NWS Daily Summary

Daily Weather History Graph

Daily Weather History Graph

Search for Another Location

Airport or City:

Trip Planner

Search our weather history database for the weather conditions in past years. The results will help you decide how hot, cold, wet, or windy it might be!

Date:

Astronomy

Feb. 21, 2014 Rise Set
Actual Time 6:38 AM CST 5:40 PM CST
Civil Twilight 6:11 AM CST 6:07 PM CST
Nautical Twilight 5:40 AM CST 6:37 PM CST
Astronomical Twilight 5:10 AM CST 7:08 PM CST
Moon No Moon Rise 10:07 AM CST (2/21)
Length of Visible Light 11h 55m
Length of Day
11h 02m
Waning Gibbous, 60% of the Moon is Illuminated
Feb 21
Waning Gibbous
Feb 22
Last Quarter
Mar 1
New
Mar 8
First Quarter
Mar 16
Full

Hourly Weather History & Observations

Time (CST) Temp. Windchill Dew Point Humidity Pressure Visibility Wind Dir Wind Speed Gust Speed Precip Events Conditions
12:15 AM 35.6 °F 28.6 °F 28.4 °F 75% 29.75 in 10.0 mi SSW 9.2 mph - N/A   Clear
12:35 AM 33.8 °F 27.7 °F 28.4 °F 81% 29.76 in 10.0 mi SSW 6.9 mph - N/A   Clear
12:55 AM 33.8 °F 28.6 °F 28.4 °F 81% 29.77 in 10.0 mi SSW 5.8 mph - N/A   Clear
1:15 AM 37.4 °F 28.5 °F 28.4 °F 70% 29.78 in 10.0 mi SW 15.0 mph 19.6 mph N/A   Clear
1:35 AM 39.2 °F 30.8 °F 28.4 °F 65% 29.78 in 10.0 mi SW 15.0 mph - N/A   Mostly Cloudy
1:55 AM 39.2 °F 30.2 °F 28.4 °F 65% 29.78 in 10.0 mi SW 17.3 mph 20.7 mph N/A   Partly Cloudy
2:15 AM 37.4 °F 28.2 °F 28.4 °F 70% 29.78 in 10.0 mi SSW 16.1 mph - N/A   Clear
2:35 AM 37.4 °F 27.8 °F 28.4 °F 70% 29.78 in 10.0 mi SW 17.3 mph - N/A   Clear
2:55 AM 37.4 °F 28.2 °F 28.4 °F 70% 29.78 in 10.0 mi SW 16.1 mph - N/A   Clear
3:15 AM 37.4 °F 28.5 °F 28.4 °F 70% 29.78 in 10.0 mi SW 15.0 mph - N/A   Clear
3:35 AM 37.4 °F 27.5 °F 28.4 °F 70% 29.78 in 10.0 mi WSW 18.4 mph 26.5 mph N/A   Clear
3:55 AM 37.4 °F 28.9 °F 26.6 °F 65% 29.79 in 10.0 mi SW 13.8 mph - N/A   Partly Cloudy
4:15 AM 39.2 °F 29.3 °F 24.8 °F 56% 29.80 in 10.0 mi WSW 20.7 mph 29.9 mph N/A   Partly Cloudy
4:35 AM 37.4 °F 28.2 °F 24.8 °F 60% 29.81 in 10.0 mi WSW 16.1 mph 20.7 mph N/A   Clear
4:55 AM 39.2 °F 30.8 °F 23.0 °F 52% 29.82 in 10.0 mi WSW 15.0 mph 23.0 mph N/A   Clear
5:15 AM 39.2 °F 31.6 °F 21.2 °F 49% 29.84 in 10.0 mi WSW 12.7 mph 21.9 mph N/A   Clear
5:35 AM 37.4 °F 29.3 °F 23.0 °F 56% 29.85 in 10.0 mi WSW 12.7 mph 19.6 mph N/A   Clear
5:55 AM 37.4 °F 27.2 °F 21.2 °F 52% 29.85 in 10.0 mi West 19.6 mph 27.6 mph N/A   Clear
6:15 AM 37.4 °F 28.2 °F 21.2 °F 52% 29.86 in 10.0 mi West 16.1 mph 25.3 mph N/A   Clear
6:35 AM 37.4 °F 29.8 °F 19.4 °F 48% 29.86 in 10.0 mi WSW 11.5 mph 20.7 mph N/A   Clear
6:55 AM 37.4 °F 28.2 °F 19.4 °F 48% 29.87 in 10.0 mi WSW 16.1 mph 23.0 mph N/A   Clear
7:15 AM 37.4 °F 28.5 °F 19.4 °F 48% 29.87 in 10.0 mi West 15.0 mph 26.5 mph N/A   Clear
7:35 AM 37.4 °F 29.8 °F 19.4 °F 48% 29.88 in 10.0 mi West 11.5 mph 18.4 mph N/A   Clear
7:55 AM 37.4 °F 29.8 °F 19.4 °F 48% 29.90 in 10.0 mi West 11.5 mph 18.4 mph N/A   Clear
8:15 AM 37.4 °F 27.8 °F 19.4 °F 48% 29.91 in 10.0 mi WSW 17.3 mph 20.7 mph N/A   Clear
8:35 AM 37.4 °F 27.8 °F 19.4 °F 48% 29.91 in 10.0 mi West 17.3 mph 27.6 mph N/A   Clear
8:55 AM 39.2 °F 31.2 °F 17.6 °F 42% 29.93 in 10.0 mi WSW 13.8 mph 23.0 mph N/A   Clear
9:15 AM 39.2 °F 30.2 °F 17.6 °F 42% 29.94 in 10.0 mi West 17.3 mph 24.2 mph N/A   Clear
9:35 AM 39.2 °F 31.2 °F 15.8 °F 39% 29.95 in 10.0 mi WSW 13.8 mph 25.3 mph N/A   Clear
9:55 AM 39.2 °F 31.6 °F 15.8 °F 39% 29.96 in 10.0 mi West 12.7 mph 24.2 mph N/A   Clear
10:15 AM 41.0 °F 33.5 °F 15.8 °F 36% 29.97 in 10.0 mi West 13.8 mph 29.9 mph N/A   Clear
10:35 AM 41.0 °F 32.2 °F 15.8 °F 36% 29.97 in 10.0 mi WSW 18.4 mph 24.2 mph N/A   Clear
10:55 AM 42.8 °F 35.1 °F 19.4 °F 39% 29.98 in 10.0 mi WSW 16.1 mph 24.2 mph N/A   Clear
11:15 AM 42.8 °F 35.4 °F 19.4 °F 39% 29.98 in 10.0 mi WSW 15.0 mph 20.7 mph N/A   Clear
11:35 AM 44.6 °F 38.8 °F 19.4 °F 37% 29.98 in 10.0 mi West 11.5 mph 19.6 mph N/A   Clear
11:55 AM 44.6 °F 38.4 °F 19.4 °F 37% 29.98 in 10.0 mi WSW 12.7 mph 24.2 mph N/A   Clear
12:15 PM 46.4 °F 39.2 °F 19.4 °F 34% 29.97 in 10.0 mi WSW 18.4 mph 23.0 mph N/A   Clear
12:35 PM 46.4 °F 39.5 °F 19.4 °F 34% 29.97 in 10.0 mi WSW 17.3 mph 20.7 mph N/A   Clear
12:55 PM 46.4 °F 40.7 °F 19.4 °F 34% 29.96 in 10.0 mi WSW 12.7 mph 20.7 mph N/A   Clear
1:15 PM 48.2 °F - 19.4 °F 32% 29.96 in 10.0 mi WSW 11.5 mph 26.5 mph N/A   Clear
1:35 PM 48.2 °F - 24.8 °F 40% 29.95 in 10.0 mi WSW 16.1 mph 24.2 mph N/A   Clear
1:55 PM 50.0 °F - 24.8 °F 37% 29.95 in 10.0 mi West 12.7 mph - N/A   Clear
2:15 PM 50.0 °F - 21.2 °F 32% 29.94 in 10.0 mi SW 18.4 mph - N/A   Clear
2:35 PM 51.8 °F - 23.0 °F 33% 29.93 in 10.0 mi SW 17.3 mph 20.7 mph N/A   Clear
2:55 PM 51.8 °F - 23.0 °F 33% 29.93 in 10.0 mi SW 16.1 mph - N/A   Clear
3:15 PM 51.8 °F - 24.8 °F 35% 29.94 in 10.0 mi SW 11.5 mph 19.6 mph N/A   Clear
3:35 PM 51.8 °F - 26.6 °F 38% 29.93 in 10.0 mi SSW 19.6 mph - N/A   Clear
3:55 PM 51.8 °F - 24.8 °F 35% 29.92 in 10.0 mi SSW 16.1 mph 20.7 mph N/A   Clear
4:15 PM 51.8 °F - 24.8 °F 35% 29.92 in 10.0 mi SSW 11.5 mph 17.3 mph N/A   Clear
4:35 PM 50.0 °F - 24.8 °F 37% 29.92 in 10.0 mi SSW 10.4 mph - N/A   Clear
4:55 PM 48.2 °F - 26.6 °F 43% 29.92 in 10.0 mi South 10.4 mph - N/A   Clear
5:15 PM 46.4 °F 42.4 °F 26.6 °F 46% 29.92 in 10.0 mi SSW 8.1 mph - N/A   Clear
5:35 PM 44.6 °F 39.7 °F 26.6 °F 49% 29.92 in 10.0 mi South 9.2 mph - N/A   Clear
5:55 PM 46.4 °F 41.9 °F 24.8 °F 43% 29.92 in 10.0 mi South 9.2 mph - N/A   Clear
6:15 PM 46.4 °F 40.7 °F 23.0 °F 40% 29.93 in 10.0 mi South 12.7 mph - N/A   Clear
6:35 PM 44.6 °F 38.8 °F 26.6 °F 49% 29.93 in 10.0 mi South 11.5 mph 17.3 mph N/A   Clear
6:55 PM 44.6 °F 38.4 °F 26.6 °F 49% 29.93 in 10.0 mi South 12.7 mph - N/A   Clear
7:15 PM 44.6 °F 38.8 °F 26.6 °F 49% 29.93 in 10.0 mi South 11.5 mph - N/A   Clear
7:35 PM 44.6 °F 39.2 °F 26.6 °F 49% 29.93 in 10.0 mi South 10.4 mph - N/A   Clear
7:55 PM 44.6 °F 38.8 °F 26.6 °F 49% 29.93 in 10.0 mi South 11.5 mph - N/A   Clear
8:15 PM 42.8 °F 36.6 °F 26.6 °F 53% 29.93 in 10.0 mi South 11.5 mph - N/A   Clear
8:35 PM 42.8 °F 35.8 °F 28.4 °F 57% 29.93 in 10.0 mi South 13.8 mph - N/A   Clear
8:55 PM 42.8 °F 35.8 °F 28.4 °F 57% 29.93 in 10.0 mi SSW 13.8 mph - N/A   Clear
9:15 PM 42.8 °F 35.4 °F 28.4 °F 57% 29.94 in 10.0 mi SSW 15.0 mph 23.0 mph N/A   Clear
9:35 PM 42.8 °F 35.4 °F 28.4 °F 57% 29.94 in 10.0 mi SSW 15.0 mph - N/A   Clear
9:55 PM 42.8 °F 35.1 °F 28.4 °F 57% 29.94 in 10.0 mi SSW 16.1 mph 20.7 mph N/A   Clear
10:15 PM 42.8 °F 36.2 °F 28.4 °F 57% 29.94 in 10.0 mi SSW 12.7 mph - N/A   Scattered Clouds
10:35 PM 42.8 °F 35.4 °F 28.4 °F 57% 29.94 in 10.0 mi SSW 15.0 mph 19.6 mph N/A   Mostly Cloudy
10:55 PM 42.8 °F 35.1 °F 28.4 °F 57% 29.94 in 10.0 mi SSW 16.1 mph - N/A   Scattered Clouds
11:15 PM 42.8 °F 34.8 °F 28.4 °F 57% 29.94 in 10.0 mi SSW 17.3 mph - N/A   Mostly Cloudy
11:35 PM 42.8 °F 35.4 °F 28.4 °F 57% 29.94 in 10.0 mi SSW 15.0 mph - N/A   Scattered Clouds
11:55 PM 42.8 °F 35.1 °F 28.4 °F 57% 29.95 in 10.0 mi SSW 16.1 mph - N/A   Clear